Theta_e
344 347 353 351 353 355 355 356 355 355 354 354 354 354 354 352 352 350 350 349 349 349 349 349 349 349 349 349 349 349 350 351 352 351 351 351 351 350 348 350 349 348 348 349 348 348 347 347 348 349 348 348 348 348 348 348 348 347 346 347 348 349 349 349 348 349 348 349 350 351 351 350 350 351 351 351 352 351 350 351 350 347 348 349 349
344 348 352 353 352 355 355 355 355 355 355 354 354 353 354 353 351 350 349 349 348 348 348 348 348 348 349 349 350 350 351 351 351 350 351 350 350 350 350 349 349 349 348 347 347 347 346 346 347 348 347 345 344 344 344 344 345 345 345 345 347 348 349 348 348 348 348 348 349 348 349 349 350 350 351 351 351 350 349 349 349 347 347 349 350
345 347 352 353 351 355 355 355 355 355 355 354 354 353 353 352 351 350 349 348 348 348 348 348 348 348 349 350 350 350 350 350 350 349 350 350 350 350 350 349 348 348 347 347 347 347 347 346 345 345 344 343 342 341 341 341 341 342 344 345 345 346 348 348 347 348 347 348 347 348 347 347 347 348 349 348 348 348 347 348 349 348 348 349 348
345 347 351 351 348 351 355 355 354 354 354 353 353 353 352 352 351 350 349 348 348 348 347 347 348 348 349 350 350 350 349 348 349 349 349 349 349 350 349 348 348 347 347 347 347 347 346 344 344 344 343 342 342 342 341 340 339 339 341 344 344 345 346 347 347 347 345 346 348 347 346 347 346 347 347 347 347 347 345 346 347 347 348 348 349
345 346 351 352 354 351 353 355 355 355 354 353 353 353 353 352 351 351 350 349 348 347 346 347 346 348 349 349 350 349 349 348 348 347 348 348 348 349 349 348 347 347 347 347 346 346 345 345 344 343 341 340 339 339 339 339 339 339 339 341 343 344 346 346 345 345 345 345 347 347 343 345 346 346 347 347 347 346 345 345 345 346 345 345 346
345 348 350 351 352 354 350 354 354 355 354 353 353 353 353 352 351 351 350 349 348 347 347 346 346 347 348 349 349 348 348 347 347 347 347 347 347 348 348 348 349 348 347 348 347 346 346 344 342 341 340 338 336 336 335 336 337 337 338 339 342 344 345 344 344 343 343 342 340 344 340 343 344 344 346 346 347 345 344 344 344 345 345 344 344
346 347 347 350 352 352 348 353 354 354 354 353 353 352 352 352 351 351 350 349 347 347 346 346 346 347 348 348 348 348 347 347 347 346 346 347 347 347 348 348 347 348 347 345 345 346 345 344 342 341 340 336 335 334 333 332 333 335 336 339 341 343 343 342 341 340 341 342 341 340 338 341 344 346 346 345 346 345 344 344 344 343 343 343 343
348 348 348 349 350 350 347 354 354 353 354 353 352 352 352 352 351 350 350 349 347 346 346 346 346 348 348 348 347 347 347 346 347 346 346 346 346 346 347 347 347 348 347 345 346 346 345 343 341 340 339 336 334 333 331 330 330 333 335 338 340 341 341 340 340 341 340 340 338 339 340 340 343 345 346 346 345 345 344 344 343 342 342 342 340
344 348 348 347 351 346 348 351 354 352 353 353 352 352 352 351 351 351 350 349 348 346 346 346 346 347 348 347 347 346 347 346 346 346 345 345 345 346 346 347 346 346 346 345 345 345 344 343 341 340 338 336 333 332 330 328 328 331 335 337 339 340 338 338 339 338 342 339 339 339 340 341 340 343 345 345 345 345 345 343 342 342 342 340 339
340 348 348 347 354 343 348 349 353 352 353 352 352 351 351 351 351 350 350 349 348 347 346 346 346 347 348 347 347 347 347 346 346 345 345 345 346 345 345 346 346 346 346 344 345 344 344 343 341 340 338 335 332 330 329 327 328 332 335 336 338 337 337 337 339 339 338 340 340 339 339 344 340 342 344 345 344 344 342 341 341 340 340 339 339
341 346 348 348 355 343 349 351 352 351 351 352 351 351 351 350 351 350 350 349 349 347 347 346 346 346 346 347 347 347 347 346 346 345 345 346 346 346 345 346 346 345 345 344 343 343 343 343 341 338 337 334 331 329 328 327 328 332 334 335 336 335 335 336 335 340 337 337 339 339 337 342 340 342 345 344 344 343 340 340 339 339 338 336 334
342 347 348 350 344 342 347 349 350 351 352 352 349 352 350 350 349 349 350 350 349 348 347 346 346 347 347 347 347 347 346 346 345 345 345 345 345 345 346 346 346 345 344 342 343 344 344 343 340 338 335 333 330 328 327 326 328 332 333 334 334 335 334 334 336 334 335 334 337 338 339 337 342 343 344 344 343 342 340 339 337 337 335 333 332
343 345 345 350 352 339 343 347 348 351 351 351 350 349 351 350 350 349 350 350 349 348 347 346 346 346 347 347 346 346 346 346 345 345 345 344 345 345 345 345 345 344 343 343 343 343 343 341 339 337 334 332 329 328 326 326 328 332 333 334 334 334 334 331 335 334 336 336 335 338 336 337 342 343 343 342 342 340 339 338 337 335 334 332 331
340 342 344 343 350 342 337 340 343 349 352 351 350 350 349 350 348 349 349 349 349 348 348 347 346 346 347 346 346 346 346 346 346 345 345 344 344 345 345 343 344 343 342 341 341 341 342 340 338 336 333 331 329 327 326 325 326 330 331 332 333 332 330 331 330 335 332 334 336 337 338 339 340 342 340 340 339 339 337 337 336 334 333 331 330
338 341 342 343 343 348 337 336 339 341 346 350 350 350 348 350 349 349 348 349 348 348 349 348 347 347 347 347 346 346 346 346 346 344 343 343 343 344 344 343 343 343 341 341 341 340 339 338 336 334 332 330 328 327 326 324 326 328 330 331 330 329 328 332 333 334 333 333 333 336 337 339 341 338 339 338 337 337 336 336 334 333 331 330 331
338 338 339 340 341 346 347 341 336 335 339 342 345 348 348 349 349 349 348 346 348 347 347 347 347 347 346 346 347 346 344 344 344 344 343 343 343 342 343 342 342 342 341 341 341 340 338 337 335 333 331 330 328 327 326 324 324 327 329 329 328 328 326 324 333 334 333 333 331 334 333 338 340 338 336 340 338 337 336 335 334 332 329 330 331
337 339 339 339 341 342 343 347 343 332 335 336 338 340 343 347 348 348 349 348 349 347 346 346 346 347 347 346 344 347 345 345 344 344 342 342 342 342 342 342 342 341 340 340 340 340 337 335 333 332 330 329 328 327 326 324 325 327 328 326 326 326 324 322 333 332 331 330 334 334 336 336 337 337 337 336 334 335 334 334 333 329 327 330 331
336 337 337 338 340 340 341 344 347 347 347 341 336 337 341 344 346 345 345 346 347 348 348 347 346 347 347 346 344 344 345 345 343 343 343 342 342 341 342 340 341 340 340 340 339 338 336 334 333 331 330 328 327 326 325 324 324 326 326 325 324 324 324 321 332 332 329 330 332 331 333 334 336 337 336 336 336 335 334 333 332 327 329 330 330
326 330 333 335 336 338 340 342 343 345 346 346 348 347 335 339 341 342 342 342 342 343 345 345 344 345 344 341 338 337 338 338 338 340 341 339 337 334 340 340 340 340 340 339 339 337 335 334 332 331 329 328 327 325 324 322 322 322 324 324 322 320 317 323 327 330 331 331 331 332 330 333 336 336 335 334 335 334 333 331 328 327 329 330 330
322 322 322 324 328 334 338 340 342 342 344 344 346 347 336 331 337 338 339 340 340 340 338 335 334 338 337 334 331 335 330 337 328 338 334 338 335 336 336 337 339 339 339 339 338 337 335 333 332 330 329 327 326 323 321 319 319 320 320 322 321 314 326 324 325 327 328 328 326 329 329 333 334 336 333 332 332 332 331 330 326 329 329 329 329
319 319 320 320 322 324 330 337 338 340 343 343 344 345 350 331 332 332 333 336 337 336 336 329 325 323 329 326 326 345 346 344 340 344 329 342 329 326 333 337 339 340 340 339 338 337 335 334 332 331 329 327 324 321 320 316 315 316 317 319 313 323 320 322 322 324 324 326 327 324 328 332 332 334 332 332 331 331 331 327 328 329 329 328 327
318 318 319 318 319 321 322 325 336 338 340 343 344 344 348 341 347 348 347 341 332 330 336 344 337 346 325 336 345 343 343 343 344 338 343 342 336 325 329 335 340 337 338 339 338 336 335 334 333 331 329 325 322 322 317 314 314 314 317 310 321 316 318 318 321 321 323 324 325 322 326 330 332 332 332 330 330 330 329 328 329 328 328 328 327
316 316 318 318 319 320 320 320 326 334 338 341 342 342 343 344 345 345 346 337 341 343 346 346 345 344 346 346 342 342 343 343 343 341 342 330 340 324 327 332 334 333 337 338 338 337 335 334 333 330 327 325 329 330 326 323 317 308 309 324 313 314 316 318 319 320 320 319 323 319 323 327 330 331 331 329 328 329 327 328 328 326 326 326 326
314 315 317 318 318 319 321 321 321 329 334 339 341 341 341 342 343 343 343 344 345 346 344 345 343 343 345 344 342 342 343 343 328 325 332 343 337 321 325 327 329 329 331 335 334 335 335 335 332 329 326 327 330 327 326 322 320 319 317 312 311 311 315 314 316 317 318 321 320 316 317 322 326 330 332 332 328 327 327 328 327 327 327 326 326
314 316 316 316 317 318 320 322 322 324 334 337 339 340 340 341 342 343 342 341 345 344 343 344 344 345 345 345 342 343 344 342 344 343 342 341 341 341 337 338 338 338 327 337 336 337 333 334 331 327 332 332 330 328 327 324 322 321 318 316 313 312 313 315 313 313 316 317 314 313 313 315 320 326 329 331 332 329 327 327 327 326 326 325 325
314 314 313 315 318 318 319 321 321 322 331 335 337 338 340 339 340 341 342 342 342 343 345 344 342 341 343 343 342 343 341 339 341 342 340 340 339 338 339 339 339 338 335 336 336 336 334 335 334 333 332 332 329 328 326 324 322 321 320 319 315 313 313 310 310 312 314 315 315 312 312 313 315 319 324 327 329 330 332 330 327 326 327 326 326
312 312 314 315 317 317 318 321 321 322 329 334 335 337 339 339 340 342 340 339 339 339 339 342 342 342 342 342 340 340 343 341 339 340 340 339 338 338 337 337 338 338 337 337 336 335 334 333 334 334 332 331 329 328 324 323 322 321 319 317 316 314 313 312 311 310 312 313 314 310 312 313 314 314 316 320 324 326 328 329 333 334 329 327 327
311 312 314 315 316 315 317 321 322 323 330 332 334 336 337 339 339 338 338 336 337 338 338 337 339 338 338 339 337 341 340 339 337 338 339 339 337 336 337 337 337 337 337 336 334 334 334 333 334 333 332 331 329 327 324 321 320 320 318 317 316 315 316 313 313 312 311 313 316 311 313 312 312 314 314 313 315 318 322 325 329 334 335 327 328
310 312 313 314 313 314 316 322 324 326 330 332 331 334 336 338 338 338 336 331 333 332 332 333 333 333 334 335 336 336 337 336 338 338 338 337 337 337 338 337 336 335 334 334 334 333 334 334 334 332 332 331 329 328 325 323 324 322 322 318 317 316 315 314 313 313 313 312 315 313 313 310 311 312 312 313 313 314 316 318 322 328 333 335 330
310 312 311 311 312 313 317 323 325 329 329 330 332 334 335 334 330 330 331 330 330 328 328 328 327 329 330 332 333 333 334 334 335 336 334 334 334 337 337 335 334 334 333 332 333 332 332 332 332 329 327 327 326 325 323 326 324 324 323 323 321 319 319 316 314 313 315 314 314 313 308 311 310 312 312 313 313 314 314 316 317 321 328 332 333
309 308 308 309 310 315 321 323 326 330 333 331 330 329 329 328 327 325 326 327 326 325 325 324 324 325 327 329 331 330 331 332 333 332 332 331 331 330 330 330 329 331 332 331 332 332 331 328 326 325 325 325 324 323 322 322 324 324 321 322 321 320 318 317 316 315 314 316 317 316 318 307 310 309 312 313 313 313 314 314 316 318 320 325 331
307 305 307 309 312 315 321 323 325 325 324 325 325 324 323 323 324 323 321 322 322 323 322 322 321 323 325 326 327 328 329 329 329 330 329 327 327 326 325 324 325 326 328 329 329 328 327 326 324 323 323 322 321 320 319 319 321 323 322 321 321 319 318 318 317 316 316 317 317 317 317 316 309 309 309 311 312 313 313 314 314 318 319 320 324
305 306 307 309 310 313 319 320 323 323 321 321 321 320 320 320 321 320 319 320 320 319 319 319 320 321 323 324 324 326 327 326 325 325 325 325 324 323 322 321 322 323 323 325 325 325 325 324 322 322 321 321 320 320 319 319 321 321 321 321 320 320 319 318 318 317 317 318 317 315 317 315 312 311 310 311 312 311 312 312 314 315 317 319 322
304 306 307 308 311 315 318 318 318 317 317 316 316 316 316 316 317 317 316 316 316 315 314 316 316 317 318 319 321 323 324 325 324 323 322 322 321 321 321 321 321 321 322 323 320 321 320 319 320 320 316 318 318 318 318 318 318 319 320 319 319 320 319 319 319 318 318 318 317 317 314 315 313 316 314 311 311 312 311 311 312 314 316 318 321
303 304 305 308 311 314 315 314 314 315 314 312 311 311 312 312 311 311 311 312 311 311 310 311 312 313 314 314 315 316 318 319 322 322 321 321 319 319 319 319 320 321 321 321 320 320 319 318 319 318 317 317 317 316 316 316 316 316 317 317 318 319 320 319 319 318 318 318 316 316 315 313 313 314 313 309 309 310 312 310 310 311 313 315 317
302 303 305 309 309 311 313 311 310 311 310 309 308 308 308 307 307 307 308 309 308 308 308 308 309 309 310 310 311 312 314 314 315 317 318 318 318 318 318 319 319 319 319 319 319 319 318 316 316 317 318 317 317 317 317 316 317 317 317 316 318 318 319 319 319 318 319 317 316 315 314 313 312 310 306 307 308 312 310 310 309 309 310 311 312
301 303 305 307 308 309 310 310 308 308 308 307 307 306 305 305 304 304 305 305 305 305 306 306 307 307 307 307 308 309 311 312 313 313 312 312 311 311 312 314 316 316 315 316 315 316 317 315 313 313 315 316 315 315 314 313 313 312 313 313 315 317 317 318 318 318 317 314 313 313 312 313 311 306 309 308 309 307 309 309 310 310 310 310 311
302 303 305 306 307 308 309 309 308 307 307 306 306 305 304 304 304 304 303 303 303 304 304 305 304 305 305 305 306 306 307 309 311 312 312 311 310 309 309 310 310 311 311 310 310 312 313 313 312 310 309 310 309 308 308 309 310 311 311 311 312 313 314 315 316 311 312 311 311 309 308 307 308 307 306 307 307 307 307 309 309 309 308 310 312
302 303 305 307 308 308 308 309 308 307 307 306 306 305 305 304 303 303 302 302 302 302 303 302 303 303 303 304 305 305 305 307 308 308 309 309 309 308 308 308 308 308 307 307 307 308 310 310 309 311 311 308 307 307 307 308 309 311 311 311 311 312 313 314 313 311 309 309 307 306 308 309 308 307 306 307 306 307 309 308 306 306 308 310 311
302 303 304 306 307 308 308 308 309 309 309 308 308 307 305 304 302 302 301 300 300 300 300 300 300 300 301 302 302 303 303 304 305 306 306 306 306 306 306 306 306 305 304 304 304 304 305 307 308 308 308 307 306 306 306 305 307 309 310 311 311 312 312 311 310 309 309 311 311 310 306 309 309 308 308 310 309 309 308 308 308 307 307 307 310
301 302 303 304 305 306 306 305 306 308 309 308 307 306 303 302 301 300 298 298 298 298 297 298 298 298 298 299 299 299 300 300 302 303 303 303 304 304 304 304 304 303 303 302 303 303 304 304 305 309 306 305 303 304 304 304 307 304 305 308 311 312 311 308 307 308 309 309 308 306 307 308 307 307 307 309 310 311 309 307 307 306 305 308 306
299 301 302 302 304 304 304 305 305 305 305 305 304 302 301 300 298 297 296 296 296 295 295 295 296 296 296 297 297 297 297 298 298 299 299 300 300 300 301 301 301 301 301 301 301 301 302 302 302 303 305 303 301 302 302 302 300 298 299 303 307 310 308 307 305 307 308 310 307 307 307 305 305 306 307 306 309 308 307 306 307 306 306 305 305
299 300 301 302 303 303 303 304 304 303 302 303 302 300 299 299 298 296 295 294 295 295 295 295 295 295 295 295 296 296 296 296 296 297 297 297 297 297 297 297 298 298 296 296 297 297 298 299 300 299 301 303 302 302 301 301 297 299 302 302 300 301 304 304 304 302 305 306 306 309 306 305 305 306 305 305 304 304 305 305 305 305 305 305 305
299 299 299 300 302 302 303 303 302 301 300 299 298 298 297 297 296 296 295 294 293 294 294 294 294 294 293 294 295 295 295 295 295 296 296 296 296 295 295 295 295 296 295 293 293 294 295 295 296 296 298 298 298 299 301 300 298 298 294 296 298 301 299 300 297 301 305 304 305 305 304 304 305 304 303 302 302 303 303 304 304 304 304 304 304
297 297 298 299 300 301 301 302 301 300 299 298 298 297 296 295 295 295 295 295 295 293 293 292 292 292 293 293 293 295 295 294 295 295 295 295 295 295 295 295 294 295 295 294 293 293 294 294 294 294 294 295 294 294 297 299 298 299 296 295 295 294 293 294 295 298 302 300 303 302 303 304 302 301 300 301 303 302 302 302 302 303 303 304 304
296 295 297 298 299 300 300 301 301 301 300 299 299 298 297 296 295 294 292 292 291 291 290 290 291 291 291 293 294 294 294 294 294 294 294 294 294 294 294 294 294 293 294 293 293 293 293 293 294 293 292 293 293 292 291 294 296 296 297 297 297 293 291 293 294 290 296 300 299 300 301 302 301 299 298 300 299 299 299 298 300 301 302 302 302
294 295 296 297 298 299 299 300 299 299 299 299 300 299 298 297 296 294 293 291 290 291 292 292 292 292 293 292 292 293 293 293 293 293 293 293 293 293 293 293 293 293 293 292 292 292 292 293 293 293 292 292 292 290 290 290 292 293 294 294 295 295 296 294 291 292 288 293 295 296 298 300 298 297 297 297 295 296 295 294 296 298 299 301 301
294 295 295 296 296 297 297 297 297 297 297 297 297 297 295 295 294 293 292 292 291 290 292 292 293 292 292 291 291 292 292 292 292 292 292 292 292 292 292 292 291 291 291 291 291 292 292 293 292 292 292 291 291 290 289 290 288 289 291 291 291 293 293 294 295 292 288 285 287 294 297 295 295 295 297 294 294 295 293 293 295 296 298 300 301
294 294 294 294 295 295 295 295 295 295 295 296 296 296 295 294 293 293 291 292 292 292 292 293 292 292 291 292 291 291 291 291 292 292 291 291 291 291 291 290 290 290 290 291 291 291 291 291 290 290 290 290 291 291 290 289 289 289 288 289 290 289 290 291 291 290 286 284 285 287 287 291 292 293 294 294 296 295 293 293 294 295 297 297 299
292 293 293 294 294 294 294 293 293 294 294 295 295 295 295 294 293 292 291 291 292 292 292 291 291 292 291 291 291 291 290 290 291 291 291 291 291 291 290 290 290 289 289 290 290 290 290 290 290 290 290 289 290 290 289 288 289 289 289 289 288 287 287 287 288 287 287 287 284 284 286 285 284 288 291 294 295 294 293 293 294 295 296 296 297
292 293 293 293 293 293 293 292 292 293 293 294 294 294 294 294 293 293 292 292 292 292 291 291 291 291 290 290 290 290 290 290 290 290 290 290 290 290 289 289 289 289 289 289 288 289 289 289 289 290 289 288 288 289 288 288 288 288 288 287 287 287 285 285 285 286 285 284 283 284 285 286 285 285 288 290 290 292 293 294 293 294 295 295 296
Wind_Speed
5 8 10 11 6 9 12 12 13 13 12 12 12 12 12 11 11 11 11 10 10 9 9 10 10 10 10 10 10 9 9 9 10 11 10 8 8 9 9 12 12 11 12 12 12 12 12 13 13 13 14 15 15 14 15 15 15 14 14 13 13 13 12 12 11 11 9 11 12 13 13 12 13 13 14 14 15 15 15 15 11 11 10 12 14
12 9 10 10 4 7 11 12 12 13 13 12 12 12 12 11 11 11 10 9 9 9 9 9 9 9 10 9 9 9 9 9 10 10 11 9 9 9 9 9 11 12 12 12 12 12 12 13 13 14 14 14 15 15 14 14 14 14 13 13 12 12 11 11 10 10 9 8 9 11 11 12 13 13 14 14 14 15 14 14 14 10 8 14 15
10 10 11 11 5 4 8 11 12 12 12 12 12 12 12 11 11 10 10 9 9 8 8 8 8 8 9 9 9 9 9 10 10 10 10 11 10 9 10 10 10 11 12 12 12 12 13 13 13 14 14 14 14 14 14 14 13 13 12 12 12 10 10 10 9 9 8 6 5 7 12 12 12 12 13 13 14 14 14 15 14 13 10 16 14
10 8 11 11 5 3 7 9 11 11 11 11 11 12 13 13 12 11 9 9 9 8 8 8 8 8 8 8 9 9 8 9 9 9 9 9 10 9 8 9 10 10 11 12 12 13 13 12 12 13 13 13 13 13 13 12 12 12 12 11 10 9 8 8 8 8 8 7 5 5 4 6 9 11 12 13 13 14 14 14 15 15 15 15 16
9 9 11 11 10 6 7 8 11 11 11 11 12 13 13 13 12 12 10 10 9 8 8 7 8 8 8 8 8 8 8 8 8 8 8 7 8 7 8 9 10 10 10 11 12 12 12 12 12 13 13 13 13 12 12 11 11 11 11 10 9 8 7 7 6 5 6 9 9 7 6 6 7 11 11 12 13 13 13 14 14 14 13 14 16
7 8 10 11 11 10 6 8 12 12 11 11 11 12 12 12 12 12 11 11 10 9 8 8 8 7 8 9 8 8 8 8 8 7 7 7 7 7 7 8 10 10 10 10 11 11 11 12 12 13 13 13 13 13 12 11 11 10 9 9 8 8 7 6 5 5 6 9 11 3 5 6 6 7 11 10 12 12 12 14 14 14 14 14 13
6 7 8 11 9 10 7 7 12 12 12 11 12 11 11 11 11 11 10 10 10 9 8 8 8 7 8 8 8 8 8 8 7 6 6 6 6 6 7 7 9 10 10 9 10 9 11 11 12 12 13 13 13 13 12 12 11 10 9 8 7 7 7 6 4 6 7 7 3 5 4 6 6 6 10 9 11 11 11 12 13 14 15 15 15
3 6 7 9 8 10 7 7 10 13 13 12 12 11 11 10 9 9 9 9 9 8 7 8 8 8 7 8 7 7 7 7 7 6 6 6 6 5 6 6 8 9 9 9 10 9 10 11 10 11 12 12 12 12 12 12 11 10 9 8 7 6 6 5 5 6 7 4 3 4 4 4 6 5 9 10 10 11 9 11 12 12 14 14 13
4 6 7 7 7 13 7 5 9 10 13 13 13 12 11 11 10 9 9 8 8 8 7 7 7 8 8 7 7 6 6 6 6 6 6 5 5 5 5 7 8 8 9 8 8 8 9 10 10 11 11 11 11 11 12 11 11 10 10 9 7 7 6 5 5 7 7 3 2 4 5 5 3 5 8 10 10 12 14 12 11 12 13 13 12
6 6 6 5 9 11 8 3 8 10 12 13 12 12 12 11 11 10 9 8 8 7 7 6 6 7 8 8 8 7 6 6 5 5 5 6 5 5 5 7 8 7 7 7 7 9 9 10 10 11 11 11 11 11 11 11 10 10 9 9 8 8 7 6 8 9 4 1 3 4 5 5 3 5 7 9 11 12 12 12 10 10 10 12 12
4 5 5 4 12 10 8 2 4 8 9 11 13 13 11 11 11 11 10 10 9 8 7 7 7 7 6 7 7 7 6 6 6 5 5 5 6 6 6 6 7 6 6 6 5 7 10 10 10 10 11 11 11 11 11 11 10 9 9 8 8 8 7 7 8 5 3 4 3 4 2 6 2 6 9 9 12 11 11 10 10 10 11 10 11
5 3 4 8 8 8 7 3 2 8 8 9 11 12 12 11 10 11 11 10 9 9 8 8 7 7 7 6 6 6 5 6 6 5 4 5 5 5 6 6 7 7 5 7 9 10 11 10 10 10 11 11 11 11 11 11 10 9 9 8 8 8 8 8 7 4 3 3 5 4 4 3 10 8 9 9 10 10 10 10 9 10 10 10 10
4 4 2 7 7 7 6 3 2 3 8 9 10 11 11 11 11 10 11 10 10 9 9 8 7 7 7 6 6 5 5 5 5 5 4 4 4 4 5 7 7 6 8 9 10 11 10 10 10 11 11 11 11 11 11 11 10 9 9 8 7 7 7 9 5 3 3 3 3 1 1 2 7 7 9 8 9 10 9 9 9 9 10 10 10
4 4 3 2 7 6 6 5 4 2 5 7 7 9 9 10 8 8 10 10 9 9 8 8 7 7 8 6 6 6 6 6 6 5 4 4 5 4 5 7 7 7 8 9 10 10 10 10 11 11 11 11 11 11 11 10 10 9 9 8 7 7 7 8 4 3 3 2 3 4 3 6 6 7 5 6 8 9 8 8 8 9 9 10 10
5 3 4 1 3 5 6 3 5 5 3 1 5 7 10 10 10 8 9 10 8 9 9 8 7 6 6 6 6 6 6 8 6 5 1 4 4 5 6 6 7 7 8 9 10 10 10 11 11 11 11 11 11 11 11 10 10 9 10 9 9 9 10 5 3 3 3 3 3 1 2 6 10 6 6 6 5 7 8 9 8 9 9 9 9
5 4 1 1 1 4 5 5 2 3 4 5 3 5 6 8 8 8 7 8 8 6 6 7 7 7 6 6 7 5 3 2 4 6 3 1 3 5 6 6 6 7 8 10 10 10 10 10 10 11 10 11 11 11 11 10 10 9 9 9 8 9 10 8 3 2 3 2 2 2 1 8 13 9 5 9 10 8 8 8 10 10 8 8 8
5 4 3 3 1 1 3 7 6 3 1 2 3 4 4 5 6 6 7 6 6 7 6 5 5 6 5 5 3 2 2 5 3 4 2 1 4 3 4 6 6 6 8 9 9 9 10 10 10 10 10 10 10 11 10 10 10 10 9 8 8 7 8 9 3 4 4 4 3 3 8 7 11 8 8 7 6 6 7 9 9 9 7 7 7
5 5 5 3 2 1 1 3 5 6 8 7 5 3 2 4 4 3 2 2 5 7 7 6 6 3 4 3 3 3 4 4 3 5 5 3 2 2 3 3 6 5 7 8 9 10 10 10 10 10 10 9 9 10 10 9 9 9 9 9 7 7 7 9 4 4 3 1 1 1 7 11 11 8 6 6 7 7 7 8 9 8 6 6 7
6 5 5 3 2 1 1 2 3 5 7 7 7 9 7 4 4 5 6 3 2 2 3 7 7 5 6 5 5 3 5 6 3 3 5 4 4 2 2 2 4 5 7 9 9 10 10 10 9 9 9 8 8 8 8 9 8 8 9 8 8 7 9 7 4 4 2 2 3 6 7 12 12 8 6 6 7 7 7 7 7 6 6 5 6
5 5 5 5 3 1 1 2 2 4 5 6 7 7 8 6 5 3 6 7 5 4 2 4 4 3 5 7 7 6 6 5 6 4 7 6 5 2 5 3 3 4 7 8 10 10 10 10 9 8 8 7 7 7 7 7 7 8 7 8 7 9 4 4 5 3 4 5 4 7 11 14 12 9 7 7 6 7 7 7 6 5 5 6 6
3 5 5 5 3 4 2 0 2 4 4 5 5 6 6 8 5 6 7 7 7 6 7 5 4 3 3 4 5 6 6 5 6 5 6 6 6 5 5 5 4 3 6 8 10 10 10 9 8 8 8 7 6 6 7 6 5 5 5 5 8 5 4 4 5 4 4 4 5 7 13 13 12 10 8 7 7 6 6 6 6 5 5 5 5
4 3 5 6 4 3 3 1 1 3 4 4 3 4 4 6 7 7 7 6 7 7 7 7 6 5 5 4 5 5 5 5 5 5 5 5 6 7 6 5 5 4 4 8 10 10 10 9 8 7 7 6 6 4 5 5 6 3 0 4 5 4 4 4 4 4 4 4 5 8 12 12 11 10 8 7 6 6 6 5 5 5 6 6 7
4 4 4 6 5 4 4 4 2 1 3 5 3 3 4 4 5 6 5 5 6 8 7 8 7 6 6 5 5 5 4 4 4 5 3 6 5 10 6 4 6 6 7 8 10 12 11 9 8 7 5 4 4 2 3 1 3 4 4 2 3 3 3 3 3 3 3 4 4 9 10 11 11 10 8 6 6 5 5 5 4 5 4 5 4
5 4 4 4 6 5 5 3 2 1 2 4 4 4 4 4 3 5 5 6 5 4 6 6 6 7 5 5 5 4 4 3 8 7 3 4 5 7 8 7 5 7 9 7 7 8 9 7 6 7 5 3 2 3 3 2 3 2 2 3 2 2 2 2 2 2 2 3 4 7 9 8 9 9 9 10 6 3 3 5 5 5 4 4 5
5 4 5 5 6 6 6 4 3 2 5 4 4 4 3 3 3 3 4 4 5 2 2 3 4 4 5 4 3 3 4 4 4 4 5 5 5 5 5 6 6 6 8 7 6 5 5 5 4 4 2 3 1 3 3 2 2 2 3 3 2 2 2 1 2 2 1 2 4 6 6 7 7 7 9 10 11 9 4 2 6 4 4 3 4
6 5 6 6 7 7 6 5 4 3 4 5 5 3 1 3 3 3 3 2 2 3 1 2 3 4 3 1 2 3 4 4 4 4 4 4 4 4 5 5 7 7 8 6 5 6 5 4 4 3 1 2 3 2 3 3 2 2 3 2 2 1 1 1 1 1 1 1 5 6 4 7 7 6 7 8 9 10 12 10 6 5 6 6 4
6 7 6 6 7 8 8 6 4 2 5 4 4 3 4 2 2 2 1 2 1 2 2 1 2 3 3 3 3 3 3 4 5 3 4 4 4 3 3 3 5 5 6 5 4 4 5 4 3 2 1 2 1 2 2 2 2 2 2 1 2 2 1 1 1 2 2 1 4 6 4 5 7 7 7 7 8 10 10 11 12 11 7 8 6
6 7 7 7 7 9 8 6 2 3 4 5 5 5 4 3 3 3 1 4 2 5 6 5 6 7 8 7 6 4 3 4 4 7 5 4 4 3 2 3 3 4 4 4 4 4 4 4 2 2 1 1 0 1 1 1 0 1 1 1 1 1 2 1 1 2 2 2 1 5 4 3 4 6 7 7 7 9 10 11 13 13 13 7 8
7 8 8 7 7 8 8 6 1 4 4 5 5 4 4 3 4 5 8 10 9 8 7 8 8 7 8 8 7 5 4 3 4 5 4 6 5 3 3 4 3 3 2 1 2 3 3 3 3 2 2 1 2 1 1 1 2 1 2 1 0 0 1 0 1 1 1 1 2 5 4 1 2 3 4 6 6 6 9 10 11 12 14 14 9
8 7 8 7 8 9 8 5 3 7 2 4 5 4 5 8 9 8 7 7 7 7 7 7 7 7 7 7 7 6 6 6 6 6 7 6 6 4 4 3 3 4 4 3 3 3 2 2 4 6 7 6 3 3 3 2 1 2 2 3 2 2 1 1 0 1 1 1 1 3 5 3 2 3 3 4 5 6 7 9 9 10 12 13 13
8 8 8 8 8 9 8 7 8 7 3 8 9 9 8 8 8 7 7 7 6 6 6 7 6 7 7 7 7 7 6 6 6 6 5 4 5 6 6 6 6 5 5 6 5 5 4 5 4 4 4 4 3 3 4 5 4 1 2 3 3 3 2 2 1 1 1 1 1 2 4 6 4 3 4 4 5 5 6 7 9 10 10 11 12
7 8 7 8 8 9 8 8 7 7 9 8 8 9 7 7 8 7 7 6 6 6 6 6 6 7 8 7 7 7 6 6 7 6 6 5 5 8 7 7 5 5 6 5 5 5 4 4 5 4 3 3 4 4 3 3 4 2 3 3 3 3 3 2 2 1 1 1 2 1 1 3 8 5 5 4 5 6 7 6 7 9 10 10 10
5 7 8 8 8 7 7 8 8 8 9 9 9 7 6 7 8 8 7 6 7 7 7 7 7 7 7 8 8 8 7 6 6 6 6 6 6 6 6 5 5 5 5 6 6 4 4 4 4 4 4 3 3 3 1 2 3 3 3 3 3 3 2 2 2 2 2 2 1 1 1 2 1 8 6 5 4 4 5 7 8 8 8 10 10
6 6 8 9 7 5 5 6 8 10 9 9 8 7 8 7 8 8 8 7 7 8 8 8 8 7 7 9 9 9 8 7 6 6 6 6 7 7 6 5 5 4 5 5 4 2 3 3 3 3 3 2 2 2 1 2 3 3 3 4 4 3 3 3 3 2 2 2 2 1 1 1 1 1 3 8 6 5 2 4 7 8 9 9 9
5 6 8 8 7 7 6 6 8 9 10 10 10 9 9 9 8 8 8 8 8 9 8 8 8 8 8 9 11 10 10 9 8 5 6 6 7 7 7 6 5 5 4 4 3 3 3 3 2 3 2 1 2 2 1 2 3 3 3 3 4 4 4 4 3 3 3 2 3 2 1 1 1 1 1 2 6 6 3 1 3 6 7 9 10
6 6 6 6 7 8 8 8 9 11 10 9 9 9 10 10 9 9 8 9 9 9 9 8 8 8 8 9 10 10 11 11 10 9 7 8 7 7 7 7 7 5 5 5 5 5 5 4 5 4 1 1 1 1 2 2 2 3 2 3 4 4 4 4 3 3 2 2 2 2 1 1 1 2 4 2 2 4 5 3 1 4 5 7 8
5 6 6 5 7 7 7 9 10 10 10 11 11 11 10 10 10 10 10 10 9 9 8 8 8 9 8 9 9 9 10 10 10 10 9 9 9 9 9 10 9 8 8 8 7 7 5 4 6 6 6 3 3 3 2 2 3 3 3 4 4 4 4 3 3 2 1 2 2 2 2 1 1 1 1 2 2 3 4 3 2 4 6 7 7
5 5 5 5 6 6 8 8 8 8 8 9 9 9 9 9 9 9 10 10 10 9 8 8 9 9 9 9 10 9 10 10 10 8 8 9 8 8 8 10 9 9 8 8 8 8 7 7 6 6 7 6 5 6 5 4 3 3 3 4 4 3 4 3 2 1 1 1 2 2 2 2 2 2 2 2 2 2 3 1 4 6 7 6 6
4 5 5 5 5 6 6 8 9 10 10 10 11 10 10 10 9 9 10 10 9 9 9 9 9 9 9 10 10 9 10 11 11 10 9 9 9 9 9 9 8 8 8 8 8 8 8 8 8 6 5 6 6 6 7 7 6 4 4 4 3 4 4 3 1 1 0 1 1 0 0 1 1 2 2 2 2 2 1 2 3 3 3 3 5
4 4 5 5 5 6 6 6 7 7 7 7 7 7 7 7 8 8 10 10 9 9 9 9 9 9 10 10 10 10 10 10 11 10 10 9 9 9 9 9 9 9 9 10 9 9 10 9 7 8 7 6 8 8 8 8 7 7 5 5 5 4 4 1 1 1 1 1 1 1 1 1 1 2 1 1 2 2 2 2 2 2 3 4 5
5 5 6 6 7 6 6 7 6 6 5 6 6 6 7 7 8 9 9 8 8 9 9 9 9 10 11 11 11 10 11 11 11 11 10 10 9 9 9 10 9 10 10 10 10 11 10 9 7 4 7 8 8 9 10 10 5 7 8 6 5 3 1 0 2 2 1 2 2 1 1 2 2 2 2 2 1 1 2 2 2 3 3 3 4
5 6 6 6 6 6 7 7 6 7 8 7 7 8 8 7 7 7 8 8 8 8 9 9 9 9 11 11 11 11 12 12 11 11 11 11 10 9 10 10 10 9 10 10 11 10 11 11 10 8 7 8 8 10 10 10 7 8 8 7 4 3 4 3 3 2 5 3 2 2 3 3 3 3 3 3 2 2 2 3 2 3 3 3 4
5 6 5 5 6 5 6 6 6 7 7 8 8 8 9 9 9 8 8 9 9 9 9 9 9 10 11 11 11 12 12 11 12 11 10 11 10 10 10 9 10 9 9 10 11 11 11 12 12 10 8 7 7 8 10 11 8 10 7 5 4 5 3 4 7 11 6 5 2 1 3 4 4 4 5 5 5 5 5 4 4 4 4 4 4
4 5 5 5 5 5 6 7 7 7 8 9 10 11 12 12 11 11 10 10 9 9 11 10 11 11 12 11 11 11 11 11 12 11 10 11 11 10 9 9 9 9 9 9 10 11 10 10 10 11 10 8 8 8 9 10 10 10 8 6 6 5 5 4 13 9 5 4 4 6 6 5 6 7 6 6 6 6 6 6 6 5 5 5 5
5 5 5 4 4 6 7 7 8 8 9 10 11 11 12 12 11 11 10 10 9 9 9 9 10 10 10 11 11 11 11 11 11 12 10 11 10 10 9 9 9 9 8 9 9 10 10 9 10 9 11 8 8 8 8 9 11 10 7 7 5 6 6 8 11 5 7 9 7 7 6 5 6 6 6 6 5 6 6 7 7 7 6 6 5
5 4 4 5 5 6 7 7 7 7 7 8 9 8 8 8 8 7 8 7 8 8 8 8 8 9 9 9 10 11 11 11 10 11 11 10 10 10 10 9 9 9 9 9 8 9 10 10 10 9 9 10 7 7 8 8 8 9 9 6 5 4 7 9 8 6 9 5 7 7 7 5 6 8 7 6 6 6 7 8 8 7 7 6 6
4 4 4 5 6 6 6 6 6 6 5 6 5 5 6 6 8 8 8 8 9 8 8 8 8 8 8 10 9 10 10 11 10 10 10 10 10 10 9 9 9 8 8 8 9 9 8 9 8 9 8 8 9 7 8 8 6 8 7 7 6 5 5 7 6 8 9 6 5 6 4 5 8 8 7 6 9 7 7 8 8 8 7 6 5
4 4 5 5 6 6 6 6 6 6 5 6 7 7 8 8 9 10 9 9 9 10 8 8 8 7 9 9 9 9 10 9 9 10 10 10 9 9 9 9 8 8 8 8 8 8 7 7 9 9 8 7 8 8 7 7 7 7 8 7 7 6 7 6 5 6 8 11 11 5 3 6 6 5 4 6 7 5 8 9 8 8 7 7 5
4 4 5 5 5 6 6 7 7 7 7 8 8 9 8 8 9 9 10 8 9 8 7 7 8 8 9 8 8 8 9 9 9 9 9 10 9 9 9 9 8 8 7 7 7 8 9 8 8 8 8 7 7 7 7 7 7 7 7 7 7 7 6 6 6 6 7 9 9 9 11 7 5 3 3 4 3 3 5 7 7 8 7 7 6
4 5 5 5 5 6 7 8 8 7 7 8 9 9 9 8 9 9 11 9 8 8 7 8 8 7 8 8 7 7 7 8 8 9 9 9 9 8 8 8 8 7 7 7 7 8 8 7 8 8 8 8 7 6 7 6 6 6 6 6 6 6 6 5 6 7 6 6 9 11 10 13 13 7 6 3 3 5 5 5 6 6 6 6 6
4 5 5 6 6 7 8 9 8 7 8 8 9 9 8 8 8 9 10 10 9 8 8 8 7 7 8 8 7 7 7 7 7 8 9 8 8 8 7 7 7 7 7 7 7 6 6 6 6 7 8 8 7 6 6 7 6 6 7 6 6 6 6 6 7 6 7 7 8 8 9 9 10 13 9 8 9 7 5 4 5 6 5 5 5
Wind_Direction
159 168 138 131 174 168 160 160 155 149 148 145 139 132 127 123 117 115 116 113 115 115 116 110 111 112 110 109 109 108 98 94 88 80 79 75 75 74 87 80 87 89 86 79 73 67 65 64 62 59 55 54 53 52 50 49 48 47 46 46 49 49 50 49 45 39 37 51 58 59 60 63 61 61 59 56 53 47 41 36 45 63 57 59 58
149 167 136 146 167 174 163 163 158 153 151 149 143 137 131 126 123 120 120 119 119 119 122 120 119 118 116 112 111 105 104 98 87 82 80 81 96 95 88 94 91 90 88 84 79 74 70 67 65 60 55 52 49 47 45 43 43 43 44 44 46 47 46 45 44 36 31 32 58 67 59 63 62 61 61 58 54 52 48 46 50 57 55 60 60
150 165 144 149 162 171 168 164 161 157 155 152 145 139 132 128 125 125 121 126 122 127 123 123 120 118 115 115 112 107 104 94 87 83 77 78 90 94 96 93 91 94 92 90 84 77 71 66 61 58 54 51 49 46 43 41 39 39 40 42 42 44 43 40 36 27 22 14 18 87 91 70 62 61 62 60 56 51 48 50 50 54 52 52 53
152 167 146 136 162 177 164 166 160 161 156 153 144 140 135 135 133 130 130 128 133 130 128 127 127 120 118 120 115 109 103 97 94 87 80 80 87 100 102 101 101 97 97 94 88 81 74 69 63 59 53 47 44 43 41 40 37 34 35 39 41 42 46 45 37 23 2 353 328 289 53 69 70 62 63 61 58 52 49 49 50 53 53 49 47
154 171 140 148 171 157 171 164 158 158 157 152 147 144 140 139 139 136 137 136 137 138 133 134 132 127 126 126 119 111 104 98 98 90 87 85 94 101 105 107 107 105 99 94 90 85 77 69 63 59 54 46 40 37 36 35 35 34 33 31 36 42 47 50 40 20 350 323 315 295 72 73 74 66 67 68 63 57 52 49 49 47 48 53 50
153 162 149 163 173 161 166 160 162 158 157 155 150 148 145 142 141 140 140 141 140 146 143 143 135 136 135 130 126 120 112 107 99 98 91 92 91 104 115 114 108 102 98 97 87 79 77 69 63 58 52 45 38 33 29 27 27 28 29 32 30 37 48 49 34 3 321 312 291 290 55 58 66 71 67 65 69 64 58 52 47 45 41 41 49
157 163 162 166 173 160 152 171 163 164 157 156 156 153 149 145 143 143 144 142 142 146 153 144 141 141 141 135 128 124 121 112 104 102 95 87 89 95 111 114 113 109 97 84 84 83 76 72 64 56 51 46 38 31 24 20 18 19 22 26 32 39 40 37 15 337 306 282 358 16 51 51 64 77 69 59 58 60 57 62 54 42 38 33 29
141 175 168 155 187 131 150 162 168 164 161 159 157 156 153 148 146 146 147 144 143 146 156 147 144 145 142 135 132 128 122 112 104 97 92 88 87 84 102 117 111 102 102 99 83 77 79 78 69 60 52 47 38 29 22 17 14 12 14 19 30 37 37 24 347 301 300 330 15 34 7 49 79 73 68 62 54 50 58 54 55 45 38 32 29
163 175 178 158 131 129 133 155 170 167 163 160 159 160 157 155 152 151 151 149 147 147 155 153 147 149 142 138 134 129 118 113 107 100 89 91 91 98 103 105 106 103 98 91 91 86 82 77 68 60 53 46 37 30 23 18 14 13 13 14 24 34 27 4 315 298 268 30 357 40 9 0 78 83 69 72 61 56 47 40 43 40 37 33 26
158 162 176 162 136 117 121 143 173 168 164 165 160 163 164 160 158 154 155 159 154 154 160 162 159 154 151 149 142 137 130 128 121 113 105 103 102 102 108 106 107 103 100 99 88 86 83 73 61 54 46 42 36 29 23 22 20 17 18 20 21 26 18 341 311 290 305 49 61 57 18 335 25 65 71 76 72 62 60 55 53 44 36 32 28
130 159 160 146 118 115 108 120 171 164 176 167 165 165 163 166 163 159 161 164 160 163 167 171 171 162 165 148 152 146 149 138 136 138 137 125 122 114 121 119 115 111 106 97 83 76 80 70 61 53 49 43 37 29 24 24 24 24 26 26 27 19 4 329 310 265 7 2 20 52 108 279 50 73 76 75 75 68 64 57 47 40 33 24 20
88 105 170 94 101 92 91 101 178 175 174 175 174 166 168 165 174 167 161 163 165 169 168 177 179 166 168 163 161 154 157 146 139 150 149 138 127 123 127 130 128 112 101 63 65 86 82 74 61 54 49 43 35 28 25 25 28 31 33 31 26 9 350 332 306 3 11 9 35 337 24 346 47 71 71 66 69 65 56 51 41 38 30 24 21
59 64 145 132 127 107 64 46 82 149 170 180 185 182 170 171 173 175 164 165 170 175 169 174 180 171 178 170 168 173 165 157 159 153 157 146 129 131 137 133 116 110 91 75 68 67 74 71 62 54 48 42 34 28 26 27 30 37 40 37 28 5 343 325 309 12 39 10 56 1 51 42 84 71 70 63 62 55 51 47 41 36 30 27 30
61 67 111 141 82 90 77 21 8 108 163 179 192 184 187 170 180 173 173 169 174 178 176 177 184 175 175 168 186 180 173 172 170 158 158 160 154 147 143 126 120 97 81 78 79 79 79 70 60 54 49 42 36 29 28 29 30 34 39 38 25 355 345 286 359 33 26 55 35 20 2 62 50 25 54 52 55 53 39 39 37 32 30 34 32
51 38 62 349 125 141 103 56 10 4 59 137 172 192 198 179 184 179 184 175 183 184 181 181 182 187 177 181 189 193 190 183 170 129 205 176 159 160 136 140 116 101 86 86 85 86 80 71 64 58 46 41 36 30 27 29 31 30 33 32 20 358 347 354 53 57 51 28 71 284 31 58 23 32 13 352 44 32 19 30 26 25 31 35 36
54 61 54 147 113 145 177 139 103 22 11 30 347 201 196 198 192 189 192 195 180 197 202 189 180 175 188 197 197 205 202 154 179 148 183 192 152 178 152 134 118 109 95 95 97 93 85 78 73 64 50 40 37 31 27 26 27 30 32 33 24 6 344 345 22 354 67 47 46 37 80 57 19 19 14 51 44 39 45 24 9 16 29 39 37
71 79 95 106 120 209 187 185 165 106 101 357 36 344 242 196 195 212 197 196 173 182 182 204 210 171 180 194 222 208 147 184 175 161 169 175 179 193 179 144 123 112 110 108 107 100 94 89 81 69 57 45 38 35 29 25 26 28 25 26 27 3 338 332 344 40 41 42 7 351 58 36 15 23 34 39 47 33 11 9 9 9 26 38 37
81 85 87 84 106 79 277 246 171 199 218 195 228 225 194 233 189 175 267 238 187 178 179 175 193 144 133 143 165 144 151 146 148 175 172 180 140 53 358 162 127 115 114 110 113 110 103 97 86 79 71 54 46 38 32 28 27 26 24 18 7 354 318 314 347 50 58 282 65 11 50 14 9 0 12 13 10 5 10 10 11 17 35 39 36
68 76 82 77 80 45 239 221 253 230 218 221 217 201 186 184 226 183 173 194 275 315 224 176 165 154 131 106 93 75 89 118 149 162 180 140 111 102 35 244 137 123 119 120 117 114 111 102 95 95 85 75 62 50 41 34 30 24 19 8 344 328 313 288 23 9 335 19 13 53 25 11 5 353 356 8 11 11 8 15 18 20 27 25 26
65 50 61 61 45 68 45 314 260 242 226 223 222 219 171 172 186 178 184 187 181 192 3 15 1 139 135 142 143 148 146 141 168 172 182 153 154 157 109 1 155 136 132 132 126 122 121 112 113 110 104 98 89 83 65 49 39 31 16 352 327 312 299 20 358 13 350 41 335 47 14 7 1 347 344 344 10 11 14 10 7 21 17 11 30
67 61 40 31 37 40 35 4 319 292 249 239 233 235 144 164 170 184 190 178 168 158 192 191 176 133 143 159 165 208 210 180 165 186 160 181 161 156 160 175 196 155 146 144 135 136 128 127 128 126 123 124 122 110 102 92 67 42 19 325 313 294 28 3 0 6 14 18 23 35 15 5 358 353 344 348 359 7 17 9 6 5 356 16 0
47 44 43 27 14 24 18 4 221 240 277 260 247 233 159 178 227 210 205 181 170 177 184 204 183 189 152 159 223 231 223 199 168 147 191 159 159 168 174 193 161 168 164 150 144 144 141 140 142 138 132 137 171 170 129 110 110 110 65 297 283 20 18 8 357 13 11 24 32 22 13 5 2 350 347 354 2 11 8 3 1 7 4 4 356
34 15 30 24 12 355 5 355 346 294 254 257 240 227 235 221 218 225 215 203 197 184 209 210 205 210 189 212 219 233 224 220 171 158 189 155 162 175 155 151 141 162 164 158 160 155 153 152 152 132 139 168 206 43 65 121 140 172 217 239 30 30 2 9 4 18 24 34 35 19 11 2 360 356 347 348 350 6 0 342 352 355 352 3 356
14 1 11 20 8 354 349 332 342 278 240 223 225 223 204 207 221 202 217 199 204 208 241 226 226 207 203 209 217 226 220 225 104 137 158 190 168 170 146 153 158 175 175 168 165 154 151 155 136 144 166 208 34 34 50 64 42 45 46 27 35 22 0 5 20 14 10 66 62 30 12 1 354 351 350 344 333 342 344 333 344 341 343 352 355
7 343 12 2 5 354 347 337 324 264 208 200 218 219 200 195 181 216 211 204 163 176 202 273 246 233 217 231 253 238 234 241 190 182 210 218 188 175 169 187 182 186 182 194 187 160 179 171 166 203 234 60 28 35 28 36 54 63 61 35 24 23 359 7 11 4 5 38 78 51 17 1 351 344 342 345 349 339 327 337 330 321 304 319 328
8 6 357 351 4 354 350 333 306 275 214 202 201 178 292 188 184 173 194 257 200 150 186 110 291 230 224 263 321 280 264 257 227 233 223 229 224 218 182 187 182 189 190 212 201 189 214 199 217 214 340 51 60 59 25 16 34 23 49 52 29 16 15 13 356 3 354 352 98 68 28 4 351 344 333 333 338 334 335 334 322 305 306 286 275
359 4 357 355 358 354 346 336 308 268 205 200 187 196 193 180 160 85 276 187 132 74 93 92 193 56 17 27 2 341 320 290 295 278 252 243 244 234 225 208 187 197 192 217 212 215 219 237 244 235 332 75 140 98 69 32 19 4 52 77 45 22 8 9 352 3 338 330 105 97 54 14 359 350 343 328 323 322 321 326 326 329 300 282 282
3 -0 2 358 359 355 347 332 322 221 186 179 178 169 181 156 87 91 264 79 87 57 38 28 41 43 40 31 18 16 2 335 324 305 305 296 268 268 224 211 200 185 178 211 235 257 265 256 272 302 53 186 92 65 112 113 76 326 103 49 49 55 37 7 11 353 326 329 100 115 89 19 359 351 344 339 327 319 315 320 325 327 338 300 289
7 8 2 356 350 345 337 339 226 209 179 169 162 157 142 147 92 59 59 51 47 57 53 52 48 46 42 38 24 19 19 17 12 352 330 298 317 307 19 16 349 340 274 276 283 289 296 283 263 285 265 287 21 48 69 61 308 47 356 74 289 86 102 87 37 332 300 315 325 120 114 88 333 331 336 335 332 327 318 318 319 323 332 340 316
12 6 355 350 342 335 337 7 337 346 86 156 156 113 64 70 65 60 62 62 66 65 57 57 46 40 42 36 36 32 37 34 33 27 30 29 2 336 344 353 28 13 355 345 342 325 342 7 9 20 24 23 6 23 9 323 339 354 356 3 339 346 9 47 11 322 348 317 303 128 141 164 247 286 306 315 322 326 327 322 315 317 325 332 333
10 2 354 344 333 341 1 5 342 349 16 55 61 74 73 75 71 70 68 69 72 66 64 63 60 59 54 51 49 43 45 45 42 34 44 42 39 35 32 29 38 19 28 35 35 25 26 37 45 47 31 9 347 21 14 357 320 320 45 351 354 335 351 347 343 357 301 315 328 310 161 173 194 242 281 290 304 319 321 324 324 321 319 320 331
9 356 348 338 345 356 2 30 42 41 58 71 70 69 65 68 75 69 61 60 60 67 63 65 60 56 55 52 50 49 49 59 51 49 57 53 57 55 45 35 26 28 39 34 41 37 32 45 51 58 50 31 23 29 11 324 309 348 11 342 341 341 337 341 317 305 292 292 284 279 288 174 186 206 227 275 310 320 322 323 325 328 324 325 323
4 355 347 348 355 347 13 31 46 48 61 64 65 62 64 66 71 68 64 58 62 60 58 51 54 52 47 46 47 55 57 55 57 59 49 59 62 66 63 54 44 35 39 46 50 42 44 41 48 44 41 40 43 34 321 276 308 356 329 350 322 316 313 292 294 277 281 287 263 263 261 279 232 184 199 219 242 289 314 322 331 324 325 327 321
2 356 357 1 356 10 27 42 49 52 54 61 61 64 63 65 69 68 61 57 59 58 52 50 48 48 45 39 43 46 44 46 49 52 56 57 60 61 60 62 56 54 53 44 53 60 87 84 76 72 72 68 67 64 32 36 9 351 341 344 314 304 299 281 269 282 288 268 270 257 257 277 277 295 157 197 209 214 252 336 334 333 329 323 321
11 3 4 352 16 31 24 46 45 57 60 60 60 61 59 60 59 60 54 56 59 57 49 44 46 43 41 41 37 35 36 31 26 40 53 57 56 50 46 44 43 45 55 66 81 63 58 44 49 98 97 106 143 134 147 169 207 213 221 227 247 266 274 272 271 266 265 271 273 265 287 281 313 324 312 342 184 187 166 133 343 331 326 322 318
14 2 5 9 24 31 43 53 53 61 59 56 57 60 62 60 58 55 57 53 56 53 50 48 47 43 43 43 35 36 39 39 33 26 40 42 51 51 46 44 42 45 43 45 43 46 39 32 24 4 342 143 223 184 200 242 249 262 245 239 243 238 247 268 269 272 279 302 294 304 308 327 345 0 343 284 311 143 166 150 283 308 301 302 304
9 10 16 16 33 37 46 57 63 68 68 69 67 66 65 63 61 58 58 55 55 53 50 45 47 45 41 40 32 32 40 42 47 50 51 47 45 40 29 24 25 30 31 32 31 26 29 32 27 14 354 358 21 8 345 340 312 293 283 273 275 280 271 258 261 276 298 268 301 322 320 355 358 299 311 342 343 335 147 184 234 261 267 276 290
23 25 23 28 46 52 59 63 66 65 73 71 71 71 68 69 64 63 62 60 56 55 51 49 48 44 40 37 33 37 32 35 39 44 56 57 54 48 41 35 34 34 38 35 30 24 24 18 37 32 20 14 20 5 351 333 311 289 278 264 259 252 259 267 252 243 268 349 340 359 354 348 13 7 5 3 350 357 344 296 255 256 254 259 279
29 36 40 44 55 64 70 73 80 83 84 83 82 81 80 74 69 65 62 60 58 52 51 52 49 46 41 39 39 40 35 37 39 41 48 51 51 48 46 41 40 41 41 36 33 27 24 27 22 22 38 34 9 4 351 331 313 293 279 274 252 250 252 251 273 266 91 20 61 286 217 28 28 32 25 6 24 357 347 336 343 347 335 224 279
39 42 48 49 55 60 66 61 68 89 86 85 81 77 74 72 71 66 64 60 58 56 52 52 48 45 40 40 39 40 36 35 38 42 48 50 51 48 49 45 44 44 43 38 32 26 20 15 22 21 16 30 26 5 356 339 318 300 271 263 256 247 250 263 313 77 339 101 24 10 54 48 48 55 40 5 7 357 339 345 345 342 342 339 317
50 49 55 49 52 58 57 55 46 47 77 80 76 84 80 77 70 66 70 63 62 62 58 52 49 47 42 42 42 39 35 34 33 36 41 46 49 48 45 43 45 43 42 39 32 28 23 17 2 34 23 24 27 8 360 331 321 342 337 303 265 213 171 306 115 44 11 1 8 25 45 35 50 35 18 351 331 354 341 352 354 349 342 333 320
52 58 58 56 58 57 58 59 55 56 57 67 73 63 56 59 74 68 69 61 58 58 59 52 54 51 47 45 42 40 39 39 35 35 37 41 45 45 44 42 42 45 44 41 34 29 24 22 16 10 27 31 34 14 11 355 14 346 328 324 300 134 130 118 50 51 344 345 17 23 13 37 34 6 359 344 352 11 10 352 343 340 333 327 328
70 66 64 73 69 67 68 68 68 72 67 71 77 77 76 72 78 81 79 79 67 66 68 64 59 58 52 48 48 44 42 41 39 38 38 38 42 45 43 43 45 44 47 42 36 34 26 23 22 18 1 36 36 30 20 19 2 339 321 323 0 343 118 91 23 341 330 25 4 33 25 16 26 15 356 355 6 352 341 341 340 333 325 323 318
79 68 56 61 65 67 68 76 78 79 81 78 83 86 88 88 86 88 87 86 87 79 74 66 61 59 56 52 50 48 48 47 42 42 44 42 40 44 44 42 42 43 46 46 40 36 30 25 23 23 13 22 23 26 28 26 19 2 12 345 308 306 324 33 354 335 47 22 337 11 20 359 9 18 359 355 349 343 343 346 339 333 329 321 314
71 54 41 50 61 64 69 76 80 83 89 95 98 103 103 102 104 104 105 102 92 83 77 68 63 61 62 52 49 49 50 50 47 44 45 44 42 42 42 43 42 40 42 44 44 39 32 28 23 26 24 14 24 18 24 29 32 23 15 358 359 360 6 333 336 301 35 348 25 13 347 356 19 9 352 344 350 348 349 342 340 332 327 323 317
81 55 49 55 68 75 78 82 85 86 91 99 109 110 114 119 125 116 106 95 86 73 69 73 70 65 65 66 58 52 52 51 49 47 45 44 43 42 42 42 43 40 38 42 41 39 33 27 23 23 24 18 10 26 21 15 41 31 25 36 20 350 331 327 328 321 336 328 7 344 339 10 14 0 341 338 1 353 356 345 333 329 326 324 323
79 75 72 68 69 72 72 77 79 77 74 82 96 106 91 82 83 87 91 95 97 84 86 85 85 82 78 71 65 56 52 52 48 46 45 42 44 40 40 42 42 42 40 42 40 37 34 29 20 24 24 21 14 28 21 13 13 31 15 16 10 350 332 329 337 323 323 331 332 335 346 12 5 345 328 353 355 345 359 341 331 330 326 322 320
85 87 80 74 77 78 81 81 83 84 76 78 78 86 95 92 94 94 90 90 92 99 94 88 88 87 82 75 71 64 57 54 53 49 45 44 43 43 40 41 41 39 39 43 39 34 33 30 28 24 24 28 25 20 18 15 16 7 5 5 1 353 344 348 342 335 323 320 324 323 347 357 340 326 324 2 332 349 351 332 325 324 322 319 319
77 82 87 86 86 90 90 93 91 86 81 78 81 84 92 98 99 102 100 95 97 100 100 94 90 86 83 80 78 75 69 61 54 53 48 46 44 44 41 42 40 37 37 37 35 34 33 31 27 27 22 22 29 21 18 14 10 11 358 360 358 355 349 350 349 355 336 321 314 328 324 324 314 305 337 311 289 345 333 313 312 311 313 319 321
97 103 102 99 97 100 102 98 89 84 84 83 85 88 91 96 98 102 107 109 107 103 99 96 90 86 84 82 76 73 68 64 57 49 48 47 44 42 43 40 39 36 34 33 31 33 32 31 29 30 23 20 18 20 22 10 359 8 359 351 354 351 349 348 349 344 328 318 312 318 324 326 325 326 326 307 291 299 298 286 292 301 303 314 316
113 113 103 104 106 105 106 96 91 90 86 85 88 89 91 96 101 103 104 107 107 108 107 99 94 90 87 82 77 72 68 64 58 51 46 44 46 44 44 42 40 39 35 33 29 25 28 28 26 28 30 21 15 7 18 15 359 359 357 355 351 354 343 337 337 338 325 317 313 308 311 309 308 314 320 319 307 287 258 251 263 274 286 292 302